This is the latest recevied weather packets stored in our database for station/object KG7DQI-13. If no packets are shown the sender has not sent any weather packets the latest 10 day(s).
| Time | Temp. | Humidity | Pressure | Rain* | Wind** | Luminosity | Snow |
|---|---|---|---|---|---|---|---|
| 1777654034 | 17.78° C | 39% | 916 hPa | 0 mm | - | 527 W/m² | - |
| 1777653127 | 17.22° C | 41% | 916.1 hPa | 0 mm | - | 494 W/m² | - |
| 1777652226 | 16.11° C | 44% | 916.3 hPa | 0 mm | - | 443 W/m² | - |
| 1777651312 | 15° C | 47% | 916.5 hPa | 0 mm | - | 403 W/m² | - |
| 1777650447 | 13.89° C | 50% | 916.6 hPa | 0 mm | - | 404 W/m² | - |
| 1777649537 | 12.22° C | 58% | 916.5 hPa | 0 mm | - | 323 W/m² | - |
| 1777648654 | 10.56° C | 62% | 916.5 hPa | 0 mm | - | 262 W/m² | - |
| 1777647777 | 9.44° C | 64% | 916.6 hPa | 0 mm | - | 193 W/m² | - |
| 1777646908 | 8.33° C | 67% | 916.7 hPa | 0 mm | - | 216 W/m² | - |
| 1777646017 | 7.22° C | 71% | 916.5 hPa | 0 mm | - | 218 W/m² | - |
| 1777645112 | 5° C | 78% | 916.6 hPa | 0 mm | - | 135 W/m² | - |
| 1777644171 | 2.78° C | 81% | 916.2 hPa | 0 mm | - | 125 W/m² | - |
| 1777643273 | 1.67° C | 81% | 916.3 hPa | 0 mm | - | 67 W/m² | - |
| 1777642372 | 1.11° C | 86% | 916.2 hPa | 0 mm | - | 28 W/m² | - |
| 1777641509 | 0° C | 84% | 916.2 hPa | 0 mm | - | 18 W/m² | - |
| 1777640611 | 0° C | 85% | 916.3 hPa | 0 mm | - | 7 W/m² | - |
| 1777639740 | 0° C | 81% | 916.3 hPa | 0 mm | - | 0 W/m² | - |
| 1777638796 | 0° C | 86% | 916.3 hPa | 0 mm | - | 0 W/m² | - |
| 1777637902 | -0.56° C | 82% | 916.3 hPa | 0 mm | - | 0 W/m² | - |
| 1777636977 | 0° C | 80% | 916.4 hPa | 0 mm | - | 0 W/m² | - |
| 1777636069 | 0.56° C | 83% | 916.5 hPa | 0 mm | - | 0 W/m² | - |
| 1777635183 | 0.56° C | 82% | 916.6 hPa | 0 mm | - | 0 W/m² | - |
| 1777634270 | 1.11° C | 78% | 916.6 hPa | 0 mm | - | 0 W/m² | - |
| 1777633371 | 1.11° C | 78% | 916.7 hPa | 0 mm | - | 0 W/m² | - |
| 1777632502 | 2.22° C | 79% | 916.6 hPa | 0 mm | - | 0 W/m² | - |
* Rain latest hour (hover to see other rain measurements)
** Current wind speed in m/s (hover to see current wind gust speed)